Starlink 31876

operational
NORAD ID: 59938 Int'l Des: 2024-106 Owner: SPXS Country: US Constellation: starlink
LEOCIRCULAR

Starlink 31876について

説明を読み込み中...

リアルタイム位置

3D地球を読み込み中...

次回通過

高度履歴

Altitude vs Time

uPlot chart will show altitude changes over time

軌道要素

1 59938U 24106S 25303.50424673 -.00000435 00000-0 -63055-5 0 9999
2 59938 43.0019 347.6528 0000083 331.5399 28.5448 15.27573297 80627
Epoch: Oct 30, 2025 • Age: 23 hours

現在のステータス

高度 483.5 km
速度 7.63 km/s
衛星直下点 -3.84°S, 36.8°W
打ち上げ日 Jun 1, 2024
運用期間 1.4 years
タイプ internet

技術仕様

分類 Payload
質量 730.00 kg
乾燥質量 700.00 kg
総質量 730.00 kg
長さ 0.30 m
直径 4.10 m
スパン 29.00 m
形状 Box + pan
製造者 SPXS
バスタイプ Starlink V2M
フェーズステータス In Orbit
所有者/国 SPXS/US

大規模コンステレーション

Loading constellations...